Temperature
24 23 23 23 21 21 24 26 27 27 26 27 27 26 25 24 23 21 21 21 21 21 20 20 20 20 20 20 19 19 19 19 19 19 19 19 19 19 18 18 18 18 18 18 18 18 18 18 18
24 23 23 22 21 22 24 26 26 27 27 27 26 26 24 23 22 21 20 21 22 21 21 20 20 20 20 19 19 19 19 19 19 19 19 19 19 19 18 18 18 18 18 18 18 18 18 18 18
25 24 23 21 22 22 25 26 27 27 27 27 26 26 24 23 21 21 22 22 22 21 21 20 20 20 20 19 19 19 19 19 19 19 19 18 18 18 18 18 18 18 18 18 18 18 18 18 17
25 24 23 21 23 24 26 26 27 27 27 27 26 25 24 23 23 23 22 22 22 21 21 20 20 20 20 20 19 19 19 19 19 19 18 18 18 18 18 18 18 18 18 18 18 18 18 17 17
25 24 21 21 23 26 27 28 28 27 27 26 26 24 24 23 24 23 22 22 22 21 21 20 20 20 20 20 20 19 19 19 19 19 18 18 18 18 18 18 18 18 18 18 18 18 18 17 17
25 22 21 22 24 27 28 28 28 27 26 25 25 24 23 23 23 22 22 22 22 22 21 20 20 20 20 20 20 19 19 19 19 18 18 18 18 18 18 18 18 18 18 18 18 18 18 17 17
24 21 22 23 25 27 28 29 28 26 26 26 25 23 22 22 23 22 22 22 22 22 21 21 20 20 20 20 19 19 19 19 18 19 18 18 18 18 18 18 18 18 18 18 18 18 17 17 17
26 22 22 23 26 27 29 29 28 27 26 26 26 23 22 22 22 22 22 22 22 22 21 21 21 20 20 20 19 19 19 19 19 18 18 18 18 18 18 18 18 18 18 18 18 18 17 17 17
27 22 22 24 27 28 29 29 29 28 27 26 26 26 24 23 22 21 21 21 21 21 21 21 20 20 20 20 19 19 19 19 18 18 18 18 18 18 18 18 18 18 18 18 18 18 18 17 17
26 22 24 26 28 28 29 29 29 28 27 26 25 25 24 23 22 21 21 21 21 21 21 21 21 20 20 20 19 19 19 19 19 18 18 18 18 18 18 18 18 18 18 18 18 18 18 17 17
26 25 26 28 29 30 30 29 29 27 26 25 25 24 24 23 22 22 22 22 22 21 21 21 20 20 20 20 20 19 19 19 18 18 18 18 18 18 18 18 18 18 18 18 18 18 18 18 18
27 27 29 29 30 30 30 29 29 28 28 28 27 26 24 23 23 22 22 22 21 21 21 21 20 20 20 20 20 19 19 19 19 18 18 18 18 18 18 18 18 18 18 18 18 18 18 18 18
27 28 30 30 31 31 30 29 29 28 29 27 26 25 25 24 23 23 22 22 21 21 21 20 20 20 20 20 20 19 19 19 19 18 18 18 18 18 18 18 18 18 18 18 18 18 18 18 18
28 28 29 30 31 31 30 29 28 28 28 27 26 25 24 24 23 23 22 22 21 21 21 20 20 20 20 19 19 19 19 19 19 18 18 18 18 18 18 18 18 18 18 18 18 18 18 18 18
29 27 27 29 30 30 29 28 28 28 27 26 25 25 24 24 24 23 23 22 22 21 21 20 20 20 19 19 19 19 19 19 19 18 18 18 18 18 18 18 18 18 18 18 18 17 17 17 17
26 26 26 27 29 30 29 27 28 27 26 25 25 24 24 24 24 24 23 23 22 22 21 20 20 20 19 19 19 19 19 19 19 18 18 18 18 18 18 18 18 18 18 18 18 17 17 17 17
24 24 25 27 29 29 28 27 27 27 26 25 25 24 24 24 24 24 23 23 22 22 21 21 20 20 19 19 19 18 18 19 18 18 18 18 18 18 18 18 18 18 18 18 18 18 17 17 17
24 25 26 27 29 29 28 27 27 27 26 25 24 24 24 23 24 23 23 22 22 22 21 21 20 20 19 19 18 18 18 18 18 18 18 18 18 18 18 18 18 18 18 18 18 18 17 17 17
25 26 26 27 29 29 28 27 27 27 26 25 24 24 23 23 23 23 23 22 22 21 21 20 20 20 19 19 19 18 18 18 18 18 18 18 18 18 18 18 18 18 18 18 18 18 18 17 17
26 26 26 27 29 29 27 27 26 26 25 25 24 23 23 23 22 22 22 22 21 21 20 20 20 20 19 19 19 19 19 18 18 18 18 18 18 18 18 18 18 18 18 18 18 18 18 18 17
26 26 27 27 28 28 27 25 25 25 25 25 24 24 23 23 22 22 22 22 21 21 20 20 20 19 19 19 19 18 18 18 18 18 18 18 18 18 18 18 18 18 18 18 18 18 18 18 17
26 27 28 28 26 24 26 24 24 24 23 24 23 23 23 23 22 22 22 21 21 21 20 20 19 19 19 19 19 18 18 18 18 18 18 18 18 18 18 18 18 18 18 18 18 18 18 18 18
27 28 28 28 26 24 23 23 23 23 23 23 23 23 23 23 22 22 22 22 21 21 20 20 19 19 19 19 18 18 18 18 18 18 18 18 18 18 18 18 18 18 18 18 18 18 18 17 18
29 28 25 22 21 22 23 23 22 21 22 23 23 23 22 22 22 22 22 21 21 21 20 20 19 19 19 18 18 18 18 18 18 18 18 18 18 17 17 17 17 18 18 18 18 18 17 17 17
28 23 22 22 21 21 22 23 21 22 23 23 23 23 22 22 22 22 21 21 21 20 20 20 19 19 19 18 18 18 18 18 18 18 18 18 18 17 17 17 17 17 17 17 17 17 17 17 17
26 23 22 22 22 21 22 22 22 23 23 24 23 23 23 22 22 22 22 21 21 20 20 19 19 19 18 18 18 18 18 18 18 18 18 18 17 17 17 17 17 17 17 17 17 17 17 17 17
26 24 22 21 21 21 21 22 23 22 22 22 22 22 22 22 22 22 21 21 21 20 20 20 19 19 18 18 18 18 18 18 18 17 17 17 17 17 17 17 17 17 17 17 17 17 17 17 17
26 25 21 21 21 21 22 22 21 22 21 21 21 21 22 22 22 22 21 21 21 20 20 19 19 19 18 18 18 18 18 17 17 17 17 17 17 17 17 17 17 17 17 17 17 17 17 16 16
26 26 22 19 20 20 21 21 22 21 21 21 20 21 22 21 21 21 21 21 21 20 19 19 19 18 18 18 18 17 17 17 17 17 17 17 17 17 17 17 17 17 17 17 17 16 16 16 16
26 25 22 22 21 19 20 21 22 21 21 21 21 21 22 22 22 21 21 21 20 20 19 19 19 18 18 18 17 17 17 17 17 17 17 17 17 17 17 17 17 17 17 16 16 16 16 16 16
Wind_Speed
5 5 2 1 4 4 3 5 9 9 6 7 9 9 8 5 4 6 6 15 19 16 17 20 20 19 19 18 18 17 17 17 16 16 16 16 16 16 15 15 15 14 14 14 14 14 14 14 15
2 3 2 3 5 4 2 6 10 10 10 11 10 10 8 7 8 11 9 16 19 16 17 19 21 20 19 19 18 17 17 16 15 15 15 15 15 15 15 15 14 14 14 14 14 14 14 14 14
2 1 2 4 2 2 2 5 9 10 11 10 7 6 6 8 10 7 12 20 17 14 17 20 22 21 20 19 18 17 16 15 15 15 15 15 15 15 15 15 14 14 14 14 14 14 13 13 13
1 3 4 4 2 4 4 4 9 12 8 8 8 6 4 7 9 13 21 20 18 13 17 21 22 21 20 19 18 17 16 15 15 15 15 15 15 15 15 15 14 14 14 14 14 13 13 12 12
3 4 5 4 4 3 3 6 8 10 6 8 10 6 4 4 19 23 21 20 19 14 15 20 22 21 20 20 19 17 16 15 15 15 15 15 15 15 15 15 15 14 14 13 13 13 12 11 11
4 4 3 3 5 3 2 7 10 11 11 10 10 7 4 12 21 22 20 18 18 17 15 19 22 21 20 19 19 17 16 15 15 15 15 15 15 15 15 15 14 14 13 12 12 12 11 10 9
4 2 1 3 5 3 2 5 10 11 10 8 9 7 6 12 18 19 18 17 16 15 14 15 18 19 20 19 18 17 16 15 15 15 15 15 15 15 15 14 13 13 12 12 11 11 10 9 8
5 3 1 3 3 3 2 3 7 11 8 10 9 9 10 13 17 18 17 15 14 13 12 10 13 15 16 17 18 17 16 15 15 15 15 15 15 14 14 13 13 12 11 11 10 9 8 7 7
4 3 3 4 3 3 1 5 3 5 9 6 4 7 13 20 21 20 17 13 12 13 11 10 10 11 13 15 16 17 16 16 15 14 15 14 12 12 11 12 12 11 10 10 9 8 7 6 6
4 4 9 7 5 3 2 5 5 5 7 6 7 10 17 19 21 22 20 18 16 16 13 11 11 11 12 13 13 13 13 13 12 12 13 12 11 10 10 12 11 10 9 8 7 6 5 4 4
5 7 8 8 8 4 2 2 3 9 6 9 14 18 20 18 18 20 20 19 18 17 16 13 12 11 10 8 11 9 9 11 10 11 12 11 10 9 9 8 8 8 7 5 5 3 2 2 2
5 10 9 7 6 3 3 2 2 5 8 13 18 21 20 19 18 19 19 18 16 16 15 14 13 11 9 10 9 9 8 8 8 11 12 10 7 6 7 6 6 6 5 4 4 2 2 2 2
6 7 8 7 6 5 1 3 2 3 9 14 18 18 18 17 15 14 15 16 17 16 16 15 13 12 9 8 7 9 8 9 10 12 13 12 7 5 6 6 7 6 5 5 4 3 2 2 2
6 8 11 8 7 4 2 2 2 5 13 16 17 17 16 15 14 14 15 15 16 16 16 14 15 13 11 9 7 7 8 10 11 11 13 14 12 8 6 5 5 6 7 7 6 5 3 2 2
7 9 12 8 5 4 2 1 4 11 15 16 15 14 14 13 13 15 17 16 16 16 14 14 14 13 12 10 9 8 8 10 9 10 13 14 13 11 8 5 4 6 8 7 5 3 3 2 2
7 6 6 9 5 5 4 5 5 12 16 15 14 14 12 11 11 13 15 14 14 14 14 14 14 13 11 9 7 6 7 7 8 11 11 13 13 13 9 5 5 8 8 6 3 3 2 2 2
5 4 7 11 7 4 5 5 5 12 14 14 14 14 13 11 10 11 14 15 14 14 14 12 12 12 10 8 7 6 6 6 8 10 10 11 12 13 9 5 5 8 5 3 4 3 3 3 2
6 6 7 9 7 2 3 4 5 11 15 15 13 12 12 11 11 11 12 12 12 12 12 12 11 11 10 7 5 5 4 4 6 7 8 10 11 11 9 5 6 7 4 3 3 3 3 3 3
8 9 12 12 8 1 2 3 5 8 12 13 12 11 10 9 8 10 12 12 11 10 11 11 11 10 9 6 5 5 4 4 4 5 8 10 11 11 8 4 4 5 5 5 5 3 3 2 2
11 10 10 10 8 2 1 1 2 6 11 14 15 13 11 8 8 9 11 11 12 12 11 11 11 11 9 7 5 4 4 3 5 4 5 9 10 10 9 6 5 5 5 5 4 4 3 1 2
11 8 8 8 6 5 3 5 4 1 3 7 10 12 12 13 13 11 11 10 11 12 12 12 11 11 10 8 5 4 3 2 2 3 4 5 8 9 8 8 5 5 5 5 5 5 5 3 1
10 10 7 4 3 4 3 1 5 1 4 6 8 10 11 11 11 11 11 10 12 11 11 11 11 10 9 9 8 8 6 5 6 5 5 5 7 8 9 8 7 6 5 5 5 5 4 4 2
9 9 4 2 1 3 5 3 5 2 3 5 9 10 12 12 12 11 11 11 10 11 11 10 10 10 9 9 10 8 6 5 4 4 5 5 4 5 7 7 6 6 5 6 5 5 5 4 4
7 3 7 7 6 2 5 2 4 3 5 5 6 10 10 10 10 9 8 8 8 9 9 9 10 9 9 9 9 9 8 7 6 6 6 5 4 3 5 6 6 6 5 6 6 6 6 5 4
0 5 5 6 5 5 4 2 5 6 3 5 7 9 9 9 9 8 8 9 9 10 10 9 9 9 8 9 8 8 8 8 8 7 7 6 4 4 5 5 5 5 5 5 5 5 5 5 5
5 10 8 5 5 5 4 2 5 2 4 5 5 7 8 8 7 8 8 8 8 9 9 9 9 8 8 8 8 7 8 6 6 6 6 6 5 5 6 5 5 5 6 6 5 4 5 4 4
6 6 10 8 3 1 4 3 3 3 6 7 6 6 5 7 7 8 7 7 7 8 8 9 9 8 7 7 6 6 7 7 7 6 6 5 5 6 6 6 6 5 5 5 5 4 5 4 4
9 8 7 6 5 3 3 3 5 6 6 5 5 6 5 6 8 7 6 6 6 6 7 7 8 8 7 7 6 6 6 6 6 6 6 6 6 5 6 6 6 6 5 5 5 4 4 4 4
4 5 6 6 6 6 4 6 7 10 11 10 7 7 8 8 9 8 6 6 6 6 6 7 7 6 5 5 5 4 4 4 5 5 5 5 5 5 5 6 5 6 6 5 5 4 4 4 3
8 9 9 6 5 7 5 6 3 8 8 8 7 7 6 8 8 8 8 6 6 6 6 6 6 6 5 4 4 4 4 4 4 4 4 5 5 5 4 4 4 4 5 5 5 5 4 4 4
Wind_Direction
228 210 170 101 47 42 89 103 100 83 69 70 82 93 101 85 125 140 127 136 134 139 143 141 138 134 131 128 125 122 118 115 113 111 110 110 110 110 111 112 112 113 115 116 116 116 115 115 115
216 196 126 52 66 56 81 101 97 106 120 106 85 87 79 69 88 110 121 137 136 138 139 141 140 136 134 132 129 127 123 120 118 117 116 114 114 114 113 115 115 116 116 117 117 117 117 117 118
254 136 83 59 66 152 136 118 118 107 111 106 95 77 84 114 119 121 138 138 134 134 138 142 140 138 136 135 132 129 127 125 122 121 120 119 119 118 117 117 117 118 119 118 118 117 117 117 118
35 46 47 55 297 222 172 178 127 113 96 86 95 75 77 127 132 134 139 139 135 134 138 143 141 139 138 136 134 133 131 128 126 125 124 123 122 121 120 119 118 118 118 118 119 118 117 116 115
68 63 37 1 293 256 210 181 139 118 114 104 98 91 60 73 122 134 141 141 138 136 139 144 143 142 141 140 139 137 135 134 131 129 128 126 125 124 122 121 119 119 118 118 119 118 117 116 114
52 59 46 322 301 280 217 157 122 114 117 115 108 104 88 126 132 142 143 142 141 141 142 145 146 145 145 143 143 142 140 138 137 135 132 130 128 126 125 125 124 122 120 119 119 118 117 115 111
101 90 251 280 298 292 183 148 127 135 137 143 134 111 118 142 144 144 140 139 141 142 143 145 148 149 149 148 147 146 145 144 142 139 136 134 132 131 131 130 128 127 124 122 120 118 116 114 109
142 108 303 275 260 269 197 135 142 139 140 141 139 139 156 162 144 139 136 137 140 142 143 143 147 149 149 151 152 151 150 149 146 143 141 140 138 136 135 134 133 131 128 126 124 121 119 116 109
123 93 234 239 232 257 234 110 133 117 122 135 139 146 153 147 140 138 137 137 145 148 150 149 149 149 149 153 157 155 154 155 153 151 149 142 137 138 139 142 140 137 135 133 131 129 127 119 107
124 173 225 226 224 217 213 137 149 113 113 104 98 114 135 142 146 149 153 156 158 159 162 159 158 157 158 160 153 156 158 159 156 157 150 146 147 149 149 152 150 147 144 141 140 139 133 115 101
187 215 243 252 245 217 190 155 143 132 148 162 149 146 148 148 153 157 162 163 164 164 164 164 163 164 167 156 154 161 161 162 164 166 161 160 159 158 151 153 153 152 152 148 151 150 137 134 130
241 258 254 258 261 247 197 172 137 160 180 167 154 152 154 157 163 166 165 165 163 165 168 166 167 169 171 163 166 169 167 172 175 179 176 164 157 153 157 158 162 162 163 166 172 181 209 192 169
273 280 283 272 282 260 205 194 177 169 146 142 145 150 158 163 163 166 163 162 162 166 168 167 167 168 167 164 175 173 176 179 180 178 177 168 161 163 166 169 172 175 177 181 190 201 207 202 176
285 305 309 303 302 288 195 242 139 165 142 145 154 159 162 166 164 159 162 165 168 169 170 169 168 169 165 169 175 170 176 178 176 176 177 172 170 169 166 169 177 185 187 187 190 191 189 183 148
321 327 321 305 290 269 115 298 191 158 148 154 162 162 163 168 168 168 170 170 169 169 167 169 168 166 165 169 173 167 171 174 174 177 178 174 171 170 165 163 172 187 188 186 182 179 162 153 144
346 340 312 294 281 262 145 228 220 156 152 160 164 168 168 172 175 171 168 165 164 164 165 170 171 166 165 162 159 158 165 170 175 174 175 174 169 168 161 161 177 184 179 172 164 160 145 153 158
344 297 282 292 274 240 169 209 192 159 156 161 166 171 173 173 177 171 167 166 165 166 166 165 163 164 164 157 149 153 163 168 172 169 169 173 170 167 161 166 177 175 167 169 177 157 155 161 169
258 279 295 292 282 239 195 196 175 160 159 163 165 168 170 174 177 168 162 163 162 164 162 158 158 159 157 149 141 143 148 161 165 167 170 172 172 168 162 167 175 168 157 167 164 154 156 160 166
255 278 284 283 286 269 212 192 186 165 157 159 162 162 163 171 162 154 153 155 157 159 159 158 159 160 155 153 156 156 162 163 165 173 174 175 172 168 163 161 165 161 164 173 165 151 151 158 137
261 270 282 294 304 301 198 252 199 170 169 163 160 162 161 156 153 156 155 158 165 168 166 161 164 166 166 167 162 157 152 166 166 169 177 179 176 176 175 163 171 168 162 165 163 150 142 167 144
265 255 263 274 313 359 56 359 352 55 135 152 153 157 160 166 165 168 165 165 167 171 171 169 168 170 170 164 146 137 116 105 144 172 186 189 181 181 178 171 172 173 166 171 175 165 155 173 198
267 262 262 291 2 323 43 297 302 215 141 154 154 154 165 172 168 172 171 171 173 174 171 165 166 168 168 163 163 168 173 179 191 184 190 192 185 178 177 175 174 178 173 173 182 173 164 159 181
240 261 283 312 71 8 1 99 295 359 147 177 166 168 173 175 171 174 177 174 172 168 167 167 166 169 169 170 173 177 180 187 180 176 183 189 188 185 180 176 174 178 181 184 183 173 171 165 170
244 348 16 38 62 2 280 151 273 257 209 191 174 172 173 170 167 169 166 157 161 163 165 167 168 174 175 175 176 179 181 179 174 178 182 181 182 196 199 183 181 183 185 189 188 182 176 176 170
206 88 23 352 1 257 274 154 244 250 189 164 173 168 161 158 159 161 160 162 164 165 169 169 170 176 179 178 181 184 186 182 182 182 184 180 183 197 208 200 191 189 188 189 184 180 180 178 175
202 144 161 202 229 275 326 226 260 264 108 118 129 143 144 155 155 159 164 163 164 167 169 169 172 177 180 182 189 190 188 187 189 188 186 188 191 197 199 196 193 191 190 193 179 183 188 182 183
183 185 176 149 176 247 288 292 323 44 81 97 105 108 136 151 150 149 150 150 153 157 165 169 168 171 175 181 186 187 185 184 185 186 186 188 190 194 195 194 196 196 191 185 176 182 187 176 185
177 166 107 127 167 230 263 235 208 194 159 131 137 144 143 142 144 146 147 150 150 156 157 156 160 167 173 176 180 185 184 183 181 176 184 187 188 187 185 194 196 191 185 177 171 170 174 168 187
188 157 135 138 156 157 208 256 220 187 170 162 165 157 157 150 151 151 153 157 147 139 142 148 152 152 159 165 167 165 167 170 167 171 179 182 182 178 181 188 186 183 178 168 165 170 162 169 186
183 185 156 163 213 166 170 254 271 167 160 153 154 157 148 149 152 152 153 149 137 133 140 145 147 147 151 149 146 148 146 147 156 166 175 171 172 172 172 166 163 165 159 159 160 166 165 162 166
Height
1508 1507 1506 1506 1508 1517 1516 1505 1498 1498 1499 1499 1498 1500 1503 1507 1512 1521 1519 1520 1524 1527 1530 1533 1535 1536 1538 1539 1540 1541 1542 1542 1543 1544 1544 1545 1546 1547 1547 1548 1549 1550 1550 1551 1552 1553 1554 1555 1556
1508 1507 1508 1508 1517 1529 1519 1503 1500 1499 1499 1499 1501 1502 1504 1509 1510 1513 1517 1522 1525 1528 1530 1533 1535 1537 1539 1540 1541 1542 1543 1544 1544 1545 1546 1546 1547 1548 1549 1549 1550 1551 1552 1552 1553 1554 1555 1556 1557
1509 1508 1509 1511 1521 1526 1518 1503 1499 1500 1500 1499 1502 1505 1507 1510 1512 1514 1518 1522 1526 1528 1531 1534 1536 1538 1539 1541 1542 1543 1544 1545 1546 1546 1547 1548 1549 1549 1550 1551 1552 1552 1553 1554 1555 1556 1557 1558 1559
1509 1510 1511 1518 1522 1512 1506 1502 1498 1499 1502 1501 1503 1508 1511 1513 1513 1515 1519 1523 1526 1529 1532 1534 1536 1538 1540 1541 1543 1544 1545 1546 1547 1548 1548 1549 1550 1551 1551 1552 1553 1554 1555 1555 1556 1557 1559 1560 1561
1510 1511 1518 1524 1518 1506 1498 1497 1497 1498 1501 1503 1503 1509 1513 1514 1515 1517 1520 1524 1526 1529 1532 1535 1537 1539 1540 1542 1543 1545 1546 1547 1548 1549 1550 1550 1551 1552 1553 1554 1554 1555 1556 1557 1558 1559 1560 1562 1562
1512 1514 1527 1530 1517 1503 1498 1496 1497 1499 1502 1504 1506 1510 1515 1515 1516 1519 1522 1525 1527 1529 1532 1535 1537 1539 1541 1542 1544 1545 1547 1548 1549 1550 1551 1552 1553 1553 1554 1555 1556 1557 1558 1559 1560 1561 1562 1564 1564
1515 1519 1526 1523 1516 1506 1498 1496 1495 1498 1501 1503 1504 1509 1515 1517 1518 1520 1523 1526 1528 1530 1532 1535 1537 1539 1541 1543 1544 1546 1547 1549 1550 1551 1552 1553 1554 1555 1556 1557 1558 1559 1560 1561 1562 1563 1564 1566 1566
1514 1519 1525 1521 1514 1507 1497 1496 1496 1496 1499 1502 1503 1506 1512 1516 1518 1521 1524 1527 1529 1531 1533 1535 1537 1539 1541 1543 1545 1546 1548 1549 1551 1552 1553 1554 1556 1557 1558 1559 1560 1561 1562 1563 1564 1565 1566 1567 1568
1513 1522 1526 1517 1509 1502 1495 1495 1497 1496 1497 1501 1502 1503 1507 1513 1517 1520 1524 1527 1529 1531 1533 1535 1538 1539 1541 1543 1545 1547 1548 1550 1551 1553 1554 1555 1557 1558 1559 1560 1561 1562 1563 1565 1566 1567 1568 1569 1570
1510 1522 1514 1502 1497 1496 1494 1493 1495 1496 1498 1500 1502 1505 1509 1513 1515 1517 1520 1524 1527 1529 1532 1535 1537 1539 1541 1543 1545 1546 1549 1550 1552 1553 1555 1556 1558 1559 1560 1562 1563 1564 1565 1566 1567 1569 1570 1571 1571
1507 1509 1501 1496 1493 1493 1492 1492 1492 1494 1498 1498 1499 1504 1508 1512 1515 1516 1519 1521 1525 1528 1531 1534 1536 1539 1541 1542 1544 1546 1548 1550 1552 1554 1555 1557 1558 1560 1561 1563 1564 1565 1566 1568 1569 1570 1571 1572 1573
1504 1499 1496 1494 1491 1490 1490 1491 1492 1492 1492 1494 1496 1500 1505 1509 1512 1515 1517 1520 1524 1527 1530 1533 1535 1538 1541 1542 1544 1546 1548 1550 1552 1554 1555 1557 1559 1560 1562 1564 1565 1566 1568 1569 1570 1571 1572 1573 1574
1499 1496 1492 1491 1489 1487 1487 1489 1489 1491 1491 1495 1497 1501 1504 1508 1512 1515 1517 1520 1523 1525 1529 1532 1534 1537 1540 1542 1544 1545 1547 1549 1551 1553 1555 1557 1559 1560 1562 1564 1566 1567 1568 1570 1571 1572 1573 1573 1574
1497 1494 1490 1487 1486 1485 1486 1488 1489 1491 1491 1494 1497 1501 1504 1507 1511 1513 1516 1519 1521 1524 1527 1530 1532 1536 1539 1541 1543 1545 1547 1549 1551 1553 1555 1557 1559 1561 1562 1564 1566 1567 1568 1570 1571 1572 1573 1574 1575
1496 1495 1491 1485 1485 1484 1486 1490 1487 1489 1491 1494 1497 1500 1504 1507 1510 1511 1513 1516 1519 1522 1525 1528 1530 1534 1537 1539 1541 1543 1546 1548 1550 1553 1555 1556 1558 1560 1562 1564 1565 1567 1568 1570 1571 1572 1573 1574 1575
1498 1501 1504 1489 1484 1482 1490 1499 1487 1488 1490 1494 1497 1500 1503 1506 1508 1510 1512 1515 1518 1521 1523 1526 1529 1532 1534 1537 1539 1542 1544 1547 1549 1552 1554 1556 1557 1560 1561 1563 1565 1566 1568 1569 1571 1572 1573 1574 1575
1508 1514 1508 1494 1481 1480 1486 1493 1485 1488 1490 1493 1495 1498 1500 1503 1506 1509 1511 1514 1516 1519 1522 1524 1527 1530 1532 1535 1538 1540 1543 1546 1548 1551 1553 1555 1557 1558 1560 1562 1564 1566 1567 1569 1570 1572 1573 1574 1575
1518 1512 1506 1498 1482 1481 1485 1488 1485 1486 1487 1490 1493 1496 1499 1501 1504 1507 1510 1513 1516 1518 1520 1522 1525 1528 1530 1533 1536 1539 1541 1544 1547 1549 1551 1553 1555 1557 1559 1561 1563 1565 1566 1568 1569 1570 1572 1573 1574
1506 1508 1506 1494 1479 1482 1486 1487 1485 1485 1487 1489 1492 1495 1498 1501 1504 1506 1508 1512 1514 1517 1519 1520 1522 1525 1528 1530 1533 1536 1539 1542 1545 1548 1550 1552 1554 1556 1557 1559 1561 1563 1565 1566 1568 1569 1571 1572 1573
1502 1506 1502 1491 1480 1482 1487 1488 1483 1484 1485 1486 1489 1493 1497 1500 1503 1505 1507 1510 1512 1514 1517 1519 1521 1524 1527 1529 1532 1535 1538 1540 1543 1546 1548 1550 1552 1554 1556 1558 1559 1561 1563 1565 1566 1568 1569 1570 1572
1500 1501 1498 1494 1485 1482 1488 1497 1491 1486 1486 1488 1489 1491 1494 1497 1500 1503 1506 1508 1510 1512 1515 1517 1520 1522 1525 1528 1531 1534 1536 1539 1541 1543 1546 1548 1550 1552 1554 1556 1558 1560 1562 1563 1565 1566 1567 1569 1570
1500 1487 1486 1487 1496 1506 1498 1517 1500 1492 1490 1489 1490 1492 1494 1497 1500 1502 1504 1506 1508 1510 1513 1515 1518 1521 1523 1526 1528 1531 1533 1535 1537 1540 1543 1546 1548 1550 1552 1554 1556 1558 1559 1561 1562 1564 1566 1567 1568
1487 1479 1482 1485 1495 1507 1506 1514 1510 1496 1496 1492 1492 1493 1494 1497 1499 1501 1502 1505 1507 1509 1511 1514 1516 1519 1521 1524 1526 1529 1531 1533 1536 1539 1541 1543 1545 1548 1550 1552 1554 1555 1557 1558 1560 1561 1563 1564 1565
1476 1481 1488 1497 1508 1524 1513 1515 1517 1504 1497 1493 1491 1492 1494 1496 1499 1501 1503 1505 1507 1509 1510 1512 1514 1517 1519 1522 1524 1527 1529 1531 1533 1535 1538 1540 1542 1544 1547 1549 1551 1552 1554 1556 1557 1559 1560 1562 1563
1479 1501 1523 1525 1534 1529 1510 1512 1513 1493 1488 1489 1490 1491 1493 1495 1498 1500 1502 1504 1506 1507 1509 1511 1513 1515 1518 1520 1522 1524 1526 1528 1530 1532 1535 1537 1539 1541 1543 1545 1547 1549 1551 1553 1554 1556 1557 1559 1560
1482 1497 1524 1535 1537 1529 1513 1514 1505 1487 1484 1487 1490 1491 1493 1495 1497 1500 1502 1504 1506 1507 1508 1509 1511 1513 1516 1518 1520 1522 1524 1526 1528 1530 1532 1534 1536 1538 1540 1542 1544 1546 1548 1550 1551 1552 1554 1555 1557
1481 1490 1493 1514 1520 1528 1523 1510 1499 1489 1488 1489 1491 1492 1494 1496 1498 1501 1502 1504 1506 1507 1508 1509 1510 1512 1514 1516 1518 1520 1521 1523 1525 1527 1529 1531 1533 1535 1537 1539 1541 1542 1544 1546 1548 1549 1550 1552 1553
1468 1476 1498 1513 1528 1534 1523 1515 1511 1496 1493 1491 1491 1492 1494 1496 1499 1501 1503 1504 1505 1507 1508 1509 1510 1511 1513 1515 1517 1518 1519 1520 1522 1524 1526 1528 1530 1532 1534 1535 1537 1539 1541 1543 1544 1546 1547 1548 1550
1470 1477 1489 1506 1513 1528 1532 1520 1489 1488 1487 1488 1489 1490 1492 1495 1497 1500 1503 1504 1505 1506 1507 1508 1510 1511 1512 1514 1515 1516 1517 1518 1520 1521 1523 1525 1527 1529 1531 1532 1534 1536 1538 1540 1541 1542 1544 1545 1547
1461 1470 1484 1503 1508 1513 1521 1514 1481 1482 1483 1486 1488 1490 1492 1494 1496 1499 1502 1504 1505 1506 1507 1508 1509 1510 1511 1512 1513 1514 1515 1516 1518 1519 1521 1523 1524 1526 1528 1530 1532 1533 1535 1536 1538 1539 1541 1542 1544